Home > Weather > Winamac > Past weeks

Flag for USA Weather for the Past 2 Weeks in Winamac, Indiana, USA

Now
41 °F

Light rain. Overcast.


Feels Like: 32 °F
Forecast: 42 / 61 °F
Wind: 18 mph from North

Location: Porter County Municipal Airport

Current Time: May 5, 2016 at 12:51:14 AM

Latest Report: May 4, 2016 at 11:56 PM


Visibility: 10 mi

Pressure: 29.82 "Hg

Humidity: 82%

Dew Point: 36 °F

Location of WinamacLocation

Historic Weather in Winamac — Graph

°F

Winamac Temperature Yesterday

Maximum temperature yesterday: 55 °F (at 12:56 AM)
Minimum temperature yesterday: 40 °F (at 9:56 PM)
Average temperature yesterday: 46 °F

High & Low Weather Summary for the Past Weeks

 TemperatureHumidityPressure
High81 °F (Apr 25, 4:56 PM)100% (Apr 22, 2:56 AM)30.23 "Hg (Apr 22, 2:56 AM)
Low37 °F (Apr 23, 5:56 AM)30% (May 3, 2:56 PM)29.61 "Hg (May 4, 5:51 AM)
Average52 °F77%29.94 "Hg
* Reported Apr 19 10:56 PM — May 4 10:56 PM, Winamac, Weather by CustomWeather, © 2016

Note: Actual official high and low records may vary slightly from our data, if they occured in-between our weather recording intervals... More about our weather records

Advertising

Winamac Weather History for the Previous 24 Hours

Scroll right to see more
 ConditionsComfort  
Time TempWeatherWind HumidityBarometerVisibility
10:56 PM
Wed, May 4
41 °FOvercast.13 mph82%29.83 "Hg10 mi
9:56 PM40 °FLight rain. Overcast.14 mph89%29.83 "Hg7 mi
8:56 PM42 °FMostly cloudy.15 mph76%29.83 "Hg10 mi
7:56 PM42 °FMostly cloudy.9 mph79%29.82 "Hg10 mi
6:56 PM43 °FLight rain. Mostly cloudy.12 mph79%29.82 "Hg8 mi
5:56 PM44 °FMore clouds than sun.10 mph71%29.81 "Hg10 mi
4:56 PM44 °FMostly cloudy.16 mph71%29.80 "Hg10 mi
3:56 PM46 °FPartly sunny.21 mph68%29.78 "Hg10 mi
2:56 PM48 °FCloudy.20 mph68%29.77 "Hg10 mi
1:56 PM47 °FMore clouds than sun.16 mph66%29.76 "Hg10 mi
12:56 PM45 °FOvercast.14 mph74%29.76 "Hg10 mi
11:56 AM45 °FOvercast.18 mph76%29.74 "Hg10 mi
10:56 AM44 °FMostly cloudy.18 mph79%29.73 "Hg10 mi
9:56 AM42 °FLow clouds.17 mph85%29.71 "Hg10 mi
8:56 AM43 °FLow clouds.17 mph89%29.69 "Hg10 mi
7:56 AM45 °FLow clouds.12 mph97%29.65 "Hg9 mi
6:56 AM47 °FLight rain. More clouds than sun.8 mph93%29.62 "Hg7 mi
5:51 AM50 °FRain. Fog.9 mph93%29.61 "Hg4 mi
4:56 AM50 °FOvercast.6 mph93%29.61 "Hg10 mi
3:56 AM51 °FRain. Mostly cloudy.17 mph83%29.64 "Hg5 mi
2:56 AM55 °FMostly cloudy.16 mph59%29.66 "Hg10 mi
1:56 AM55 °FMostly cloudy.10 mph62%29.67 "Hg10 mi
12:56 AM55 °FOvercast.8 mph62%29.71 "Hg10 mi
Weather by CustomWeather, © 2016

See weather overviewHow to use our weather pages